Tracking 19794 objects as of 21-Jul-2019
HD Live streaming from Space Station
objects crossing your sky now

SL-8 DEB

Track SL-8 DEB now!
10-day predictions


NORAD ID: 29285
Int'l Code: 1981-120P
Perigee: 1,592.3 km
Apogee: 1,665.6 km
Inclination: 83.0 °
Period: 118.7 minutes
Semi major axis: 7999 km
RCS: 0.0058 m2 (small)
Launch date: December 17, 1981
Source: Commonwealth of Independent States (former USSR) (CIS)
Launch site: PLESETSK MISSILE AND SPACE COMPLEX (PKMTR)

Note: This is SATELLITE DEBRIS
aabbcc
Your satellite tracking list
Your tracking list is empty




NASA's NSSDC Master Catalog

Two Line Element Set (TLE):
1 29285U 81120P   19201.91338376 +.00000032 +00000-0 +23692-3 0  9991
2 29285 082.9529 259.9352 0045825 315.8716 165.8586 12.13314004270257
Source of the keplerian elements: AFSPC